Regional Weather Roundup
Issued by NWS San Angelo, TX

Home | Current Version | Previous Version | Text Only | Print | Product List | Glossary On
Versions: 1 2 3 4 5 6 7 8 9 10 11 12 13 14 15 16 17 18 19 20 21 22 23 24 25 26 27 28 29 30 31 32 33 34 35 36 37 38 39 40 41 42 43 44 45 46 47 48 49 50
000
ASUS44 KSJT 262010
RWRSJT
WEST CENTRAL TEXAS REGIONAL WEATHER ROUNDUP
NATIONAL WEATHER SERVICE SAN ANGELO TX
300 PM CDT WED APR 26 2017

NOTE: "FAIR" INDICATES FEW OR NO CLOUDS BELOW 12,000 FEET WITH NO
SIGNIFICANT WEATHER AND/OR OBSTRUCTIONS TO VISIBILITY.

TXZ049-054-064>066-071>073-076>078-098-099-113-114-127-128-139-140-
154-155-168>170-262100
...LOCATIONS ACROSS WEST CENTRAL TEXAS...

CITY           SKY/WX    TMP DP  RH WIND       PRES   REMARKS
SAN ANGELO     SUNNY     76  38  25 NW25G37   29.77R
ABILENE        PTSUNNY   62  42  47 NW17G32   29.78F
DYESS AFB      MOSUNNY   65  43  44 N26G32    29.77S
JUNCTION       SUNNY     82  33  17 W26G43    29.73R
SWEETWATER     PTSUNNY   64  41  42 NW23G31   29.83S
BROWNWOOD      MOSUNNY   68  48  49 NW21G33   29.73R
COLEMAN        PTCLDY    66  47  50 N21G26    29.77R
SONORA         SUNNY     77  36  22 NW20G31   29.82R
OZONA            N/A     73  34  23 NW25G35   29.82F
BRADY          NOT AVBL
$$

TEXAS PANHANDLE/OKLAHOMA PANHANDLE

CITY           SKY/WX    TMP DP  RH WIND       PRES   REMARKS
AMARILLO       MOSUNNY   61  34  36 NW20G33   29.81R
BORGER         MOSUNNY   59  32  36 NW17G32   29.80S
CANADIAN       MOSUNNY   57  36  44 NW13G22   29.77S
DALHART        MOSUNNY   60  33  36 NW22G28   29.81F
DUMAS          PTCLDY    57  34  41 NW23      29.80F
GUYMON         NOT AVBL
HEREFORD       CLEAR     60  40  47 NW14G22   29.84S
PAMPA          PTCLDY    59  35  40 N18G31    29.79S
PERRYTON       MOSUNNY   58  33  39 NW16G25   29.76S
$$

SOUTHERN PANHANDLE/SOUTH PLAINS/ROLLING PLAINS

CITY           SKY/WX    TMP DP  RH WIND       PRES   REMARKS
LUBBOCK        MOSUNNY   65  36  34 N10       29.83S
SNYDER         MOSUNNY  N/A N/A N/A N17G24    29.82F
CHILDRESS      MOSUNNY   63  36  36 N18G24    29.77F
SEMINOLE       CLEAR     65  35  33 N7        29.86F
$$

PERMIAN BASIN

CITY           SKY/WX    TMP DP  RH WIND       PRES   REMARKS
MIDLAND        SUNNY     68  36  30 NW12G21   29.85F
ODESSA         MOSUNNY   69  34  27 N10G20    29.85F
WINK           SUNNY     71  35  26 N15G22    29.83F
$$

FAR WEST/SOUTHWEST MOUNTAINS/TRANS PECOS

CITY           SKY/WX    TMP DP  RH WIND       PRES   REMARKS
ALPINE         CLEAR     75  19  12 W18G25    29.93F
DRYDEN           N/A     85  25  11 N22G29    29.73F
EL PASO        MOSUNNY   74  14  10 W10G20    29.87F
FORT STOCKTON  SUNNY     76  28  17 NW22G30   29.85S
GUADALUPE PASS SUNNY     70  18  13 SW24G30   29.91F
MARFA          SUNNY     72  18  13 W25G32    29.93S
PECOS          CLEAR     73  30  20 NW15G23   29.84F
$$

DALLAS/FORT WORTH METROPLEX

CITY           SKY/WX    TMP DP  RH WIND       PRES   REMARKS
DFW AIRPORT    CLOUDY    60  48  64 NW21      29.66R
FTW MEACHAM    PTSUNNY   62  50  64 NW21G29   29.68R
DAL-EXECUTIVE  CLOUDY    59  51  75 NW21      29.66R
GRAND PRAIRIE  PTSUNNY   61  46  59 W15G25    29.68R
ADDISON        CLOUDY    57  48  72 W17G24    29.67R
MESQUITE       CLOUDY    57  50  77 NW20G26   29.65R
LANCASTER      CLOUDY    59  51  72 NW21G31   29.67R
$$

NORTH CENTRAL TEXAS

CITY           SKY/WX    TMP DP  RH WIND       PRES   REMARKS
SHRMAN/DENISON CLOUDY    54  47  77 NW18      29.66R
GAINESVILLE    CLOUDY    55  45  70 N15G23    29.70R
BRIDGEPORT     CLOUDY    57  46  64 NW15G23   29.73S
DENTON         CLOUDY    59  48  67 NW16G25   29.67R
WAXAHACHIE     CLOUDY    60  51  72 NW17G28   29.67R
GRANBURY       MOCLDY    64  50  60 NW20G28   29.72S
$$

WESTERN NORTH TEXAS

CITY           SKY/WX    TMP DP  RH WIND       PRES   REMARKS
WICHITA FALLS  CLOUDY    53  41  63 NW22G31   29.76R
VERNON         MOCLDY    60  36  40 NW20G25   29.78S
BRECKENRIDGE   MOCLDY    60  44  56 NW10G23   29.77S
COMANCHE       MOSUNNY   64  51  62 N22G30    29.73R
$$

CENTRAL AND SOUTH CENTRAL TEXAS

CITY           SKY/WX    TMP DP  RH WIND       PRES   REMARKS
AUSTIN/BERGSTM MOSUNNY   91  43  18 NW17G31   29.57F
WACO           SUNNY     75  55  49 NW22G31   29.62R
HILLSBORO      MOCLDY    68  55  62 NW24G31   29.65R
TEMPLE         NOT AVBL
KILLEEN-GRAY   SUNNY     80  56  44 NW20G31   29.62R
FORT HOOD      SUNNY     79  55  44 NW23      29.59R
GEORGETOWN     SUNNY     88  45  22 NW14G25   29.60R
LAGO VISTA     FAIR      87  33  14 W21G32    29.64R
SAN MARCOS     SUNNY     91  43  18 NW21G30   29.59S
NEW BRAUNFELS  SUNNY     93  42  17 NW17G31   29.58S
RANDOLPH AFB   SUNNY     91  39  16 NW21G32   29.60R
SAN ANTONIO    SUNNY     91  40  16 W24G35    29.62R
STINSON        SUNNY     93  38  14 NW16G28   29.59R
PLEASANTON     NOT AVBL
LA GRANGE      SUNNY     92  52  25 NW16G23   29.54S
GIDDINGS       CLEAR     90  44  20 NW15G26   29.56S
$$

EAST TEXAS

CITY           SKY/WX    TMP DP  RH WIND       PRES   REMARKS
PARIS          CLOUDY    55  52  88 NW18G24   29.57R
CLARKSVILLE    NOT AVBL
TYLER          LGT RAIN  61  61 100 NW22G33   29.55R
LONGVIEW       CLOUDY    66  65  96 VRB6      29.51R THUNDER FOG
PALESTINE      HVY RAIN  65  64  96 NW14G26   29.58R
NACOGDOCHES    MOSUNNY   84  72  65 SW16G25   29.46F
$$

TEXAS HILL COUNTRY AND EDWARDS PLATEAU

CITY           SKY/WX    TMP DP  RH WIND       PRES   REMARKS
LLANO          CLEAR     84  36  17 NW23G30   29.69R
HORSESHOE BAY  FAIR      85  34  15 NW18G33   29.65R
KERRVILLE      SUNNY     84  30  14 W22G32    29.69R
FREDERICKSBRG  SUNNY     84  29  13 NW17G29   29.68R
ROCKSPRINGS    CLEAR     81  36  19 NW21G32   29.76S
HONDO          SUNNY     91  40  16 NW22      29.64S
UVALDE           N/A    N/A N/A N/A MISG        N/A
DEL RIO        SUNNY     89  35  14 NW23G32   29.65F
$$

SOUTHEAST TEXAS

CITY           SKY/WX    TMP DP  RH WIND       PRES   REMARKS
COLLEGE STN    MOSUNNY   91  62  37 W23       29.52S
CALDWELL       NOT AVBL
CROCKETT       PTCLDY    86  72  62 SW15G22   29.51F
BRENHAM        PTSUNNY   89  65  45 W14G20    29.54S
HUNTSVILLE     MOSUNNY   88  68  51 SW14G22   29.51F
CONROE         MOSUNNY   87  70  56 SW13G22   29.53F
HOUSTON BUSH   PTSUNNY   86  72  62 S12       29.53F
HOUSTON HOBBY  MOSUNNY   84  72  67 SW13      29.54F
PERLAND        PTSUNNY   86  72  62 S12       29.56F
WHARTON        CLEAR     89  68  49 W8        29.55F
$$

THE UPPER TEXAS COAST

CITY           SKY/WX    TMP DP  RH WIND       PRES   REMARKS
ORANGE         CLOUDY    80  73  80 S14       29.59F HAZE
PORT ARTHUR    CLOUDY    80  72  76 S15G23    29.56F
GALVESTON      PTSUNNY   82  76  81 S13       29.58F HAZE
ANGLETON       CLOUDY    86  75  69 S13       29.55F
BAY CITY       CLOUDY    86  74  67 SW6       29.55F HAZE
$$

TEXAS COASTAL BEND, RIO GRANDE PLAINS DEEP SOUTH TEXAS

CITY           SKY/WX    TMP DP  RH WIND       PRES   REMARKS
VICTORIA       MOSUNNY   94  65  38 NW16G24   29.55S
BEEVILLE       FAIR      96  51  22 N17G30    29.57S
ROCKPORT       SUNNY     98  62  30 NW18G25   29.54S
PORT ARANSAS   PTCLDY    86  73  64 S7        29.55S
PORT LAVACA    PTCLDY    92  73  53 NW8G20    29.55S
CORPUS CHRISTI MOSUNNY   95  64  35 N22G30    29.55F
KINGSVILLE NAS MOSUNNY   98  62  30 NW23G30   29.56S
COTULLA        LGT RAIN  96  35  11 NW14G31   29.62F
LAREDO         SUNNY     94  46  19 N13G24    29.62F
BROWNSVILLE    SUNNY    103  58  22 NW21G31   29.53F
PORT ISABEL    SUNNY     99  64  31 N23       29.53F
HEBBRONVILLE   CLEAR     93  44  18 N14G22    29.62F
MCALLEN        SUNNY    105  53  17 N18G29    29.55F
WESLACO        SUNNY    101  55  21 N17G26    29.54F
FALFURRIAS     CLEAR     96  53  23 NW21G28   29.56F
EDINBURG       CLEAR    103  43  13 NW20G30   29.55F
$$




USA.gov is the U.S. government's official web portal to all federal, state and local government web resources and services.